Location: Mequon Rotary Park
(43.2522°N, 87.9594°W)
Time: 21:30:19
(UTC-05:00)

Daily predictions for brighter satellites

Satellite Brightness Start Highest point End
(mag) Time Altitude Azimuth Time Altitude Azimuth Time Altitude Azimuth
Cosmos 2026 Rocket 4.0 20:14:02 10° N 20:20:16 88° E 20:26:23 10° S
CZ-4C R/B 4.2 20:18:33 10° NNW 20:24:07 25° NNE 20:30:12 10° E
Cosmos 968 Rocket 3.7 20:19:04 10° NNW 20:24:12 55° ENE 20:29:20 10° SE
Cosmos 1862 Rocket 3.6 20:19:52 10° S 20:24:16 64° E 20:28:44 10° NNE
Cosmos 1844 Rocket 3.9 20:19:57 10° N 20:24:39 27° NE 20:29:20 10° ESE
Meteor 2-10 Rocket 4.1 20:21:20 10° SSE 20:26:49 45° E 20:32:15 10° NNE
CZ-2D R/B 3.5 20:24:01 10° S 20:27:53 77° WSW 20:31:47 10° NNW
Spot 2 Rocket 3.8 20:24:02 10° S 20:29:07 74° WSW 20:34:12 10° NNW
Cosmos 2278 Rocket 4.1 20:27:31 10° N 20:30:46 15° NE 20:34:00 10° E
Lacrosse 4 Rocket 3.8 20:31:25 10° WNW 20:34:49 22° WSW 20:38:16 10° SSW
Cosmos 2333 Rocket 3.8 20:33:00 10° SE 20:35:48 14° E 20:38:37 10° ENE
USA 234 3.8 20:31:03 10° E 20:37:17 50° NNE 20:43:33 10° NW
Helios 1B rocket 2.6 20:33:44 10° NNE 20:37:45 51° E 20:41:45 10° S
Intercosmos 25 Rocket 3.8 20:35:51 10° SSW 20:39:13 67° W 20:44:03 10° N
ALOS 4.5 20:37:26 10° SSW 20:41:22 27° W 20:45:20 10° NW
Cosmos 1703 Rocket 4.0 20:41:16 10° SSE 20:45:24 40° E 20:49:32 10° NNE
Cosmos 2219 Rocket 3.3 20:44:45 10° SSE 20:48:58 22° E 20:53:13 10° NE
Envisat 3.0 20:44:22 10° SSE 20:49:26 77° ENE 20:54:31 10° N
Meteor 1-29 3.0 20:46:51 10° NNE 20:50:16 55° E 20:53:38 10° S
SAR-Lupe-4 3.6 20:48:36 10° SSE 20:52:11 87° WSW 20:55:48 10° NNW
USA 186 2.9 20:50:19 10° S 20:53:03 40° W 20:55:59 10° NNW
SPOT 5 4.1 20:57:52 15° ESE 21:00:34 24° ENE 21:04:11 10° NNE
SeaSat 1 4.2 20:58:47 10° E 21:02:08 19° NE 21:05:35 10° N
Cosmos 1933 4.3 20:58:23 10° SSW 21:02:17 49° W 21:06:13 10° N
Cosmos 1867 4.2 21:00:24 10° NW 21:05:42 52° WSW 21:10:56 10° SSE
ERS-1 Rocket 3.2 21:01:58 15° SE 21:06:00 52° ENE 21:10:53 10° N
Cosmos 2263 Rocket 3.7 21:03:05 10° NW 21:08:01 33° WSW 21:12:57 10° SSW
H-2A R/B 3.6 21:06:42 14° E 21:09:04 19° ENE 21:12:27 10° NNE
SAR-Lupe-1 4.5 21:05:55 10° S 21:09:27 61° WSW 21:13:01 10° NNW
Cosmos 2266 Rocket 4.0 21:03:31 10° N 21:09:52 76° E 21:16:15 10° SSE
NOSS 3-1 (C) 3.6 21:13:01 10° S 21:18:26 45° ESE 21:24:27 10° NE
Cosmos 2221 Rocket 3.5 21:14:38 10° S 21:19:01 70° E 21:23:27 10° NNE
Cosmos 1782 3.4 21:18:24 24° SE 21:20:10 37° E 21:23:53 10° NNE
MetOp-B 4.4 21:17:11 20° SE 21:20:38 50° ENE 21:25:48 10° N
Meteor 1-26 Rocket 4.4 21:15:01 10° SSW 21:20:44 77° WNW 21:26:36 10° N
USA 229 DEB 3.9 21:19:20 10° SW 21:26:10 75° NW 21:33:10 10° NE
USA 229 3.9 21:19:27 10° SW 21:26:16 76° NW 21:33:16 10° NE
H-2A R/B 4.0 21:27:25 14° E 21:28:31 16° ENE 21:31:06 10° NNE
Cosmos 2237 4.4 21:24:51 10° SSW 21:30:34 76° WNW 21:36:20 10° NNE
Cosmos 2360 Rocket 3.3 21:25:28 10° SW 21:30:53 46° WNW 21:36:21 10° NNE
Cosmos 1346 Rocket 4.1 21:31:35 23° E 21:31:35 23° E 21:34:32 10° NE
Terra 3.6 21:32:31 16° E 21:33:51 17° ENE 21:36:57 10° NNE
ATLAS 5 CENTAUR R/B 3.9 21:30:24 10° NW 21:35:38 30° WSW 21:41:11 10° S
NOSS 3-1 (A) 3.6 21:30:51 10° S 21:36:16 45° ESE 21:42:17 10° NE
COSMOS 2428 2.8 21:34:36 10° SSW 21:40:18 82° WNW 21:46:03 10° NNE
Cosmos 1939 Rocket 4.4 21:37:02 10° SSW 21:40:42 33° W 21:44:19 10° NNW
ARGOS 3.2 21:41:15 30° SE 21:43:54 63° ENE 21:49:13 10° N
Cosmos 1980 4.1 21:42:14 28° SSE 21:44:30 40° ESE 21:49:44 10° NE
NOAA 11 4.1 21:41:22 25° SSE 21:44:41 84° ENE 21:50:11 10° NNW
USA 267 4.2 21:38:47 10° NE 21:45:03 50° NNW 21:51:18 10° WSW
Cosmos 1777 Rocket 4.5 21:41:13 10° NNW 21:46:24 58° WSW 21:49:46 21° S
Cosmos 1844 3.6 21:41:22 10° NNW 21:47:04 85° ENE 21:49:48 32° SSE
Abrixas rocket 2.6 21:44:06 10° WNW 21:47:20 54° NNE 21:47:58 45° ENE
YAOGAN 6 3.7 21:46:02 20° SSW 21:48:10 41° W 21:51:35 10° NNW
Cosmos 1553 Rocket 4.4 21:46:05 29° SE 21:48:37 43° E 21:54:24 10° NNE
Cosmos 1606 2.5 21:48:19 47° SSE 21:49:14 68° E 21:53:00 10° NNE
Cosmos 1782 Rocket 4.4 21:45:02 10° NNW 21:49:15 48° W 21:52:23 17° SSW
Okean 1-7 3.6 21:45:37 10° SSW 21:49:57 60° W 21:54:20 10° N
SL-16 R/B 3.9 21:53:21 17° E 21:53:21 17° E 21:55:42 10° ENE
Atlas Centaur 2 3.8 21:48:35 10° WSW 21:53:57 25° S 21:55:28 24° S
Cosmos 2084 3.1 21:50:07 10° NW 21:53:59 78° NE 21:54:45 55° SE
SPOT 1/Viking Rocket 3.7 21:55:00 38° SE 21:56:52 60° ENE 22:02:00 10° N
ATLAS 3B R/B 4.4 21:52:56 10° NNW 21:58:13 22° NNE 22:03:13 10° ENE
Meteor 1-10 Rocket 4.2 21:54:01 18° S 21:58:34 84° E 22:04:25 10° NNE
Meteor 1-11 Rocket 3.8 21:56:54 10° N 22:02:21 56° ENE 22:04:01 41° SE
MOS 1-B Rocket 3.8 22:02:57 33° SSE 22:05:41 89° WSW 22:11:19 10° NNW
SL-08 RB Rocket 3.6 22:05:09 50° SSE 22:06:20 81° ENE 22:10:53 10° N
MetOp-A 4.4 22:03:40 27° S 22:06:34 63° WSW 22:11:54 10° NNW
USA 245 3.9 22:05:25 36° S 22:07:37 81° WSW 22:12:10 10° NNW
Cosmos 1844 Rocket 3.3 22:03:25 10° NW 22:08:47 49° WSW 22:11:28 27° SSW
ATLAS CENTAUR R/B 3.8 22:12:44 11° ENE 22:12:44 11° ENE 22:12:56 10° NE
Okean 2 Rocket 4.2 22:06:04 10° NNW 22:10:18 41° W 22:12:43 22° SSW
Cosmos 2237 Rocket 2.2 22:08:37 35° S 22:10:54 61° ESE 22:16:32 10° NNE
Nimbus 7 Rocket 4.3 22:05:50 10° NNE 22:11:49 76° ESE 22:14:59 30° S
Cosmos 468 Rocket 4.4 22:13:09 43° ESE 22:13:13 43° ESE 22:18:14 10° NNE
CZ-4C R/B 2.9 22:06:34 10° NW 22:13:43 80° NE 22:17:07 38° SE
Cosmos 2278 Rocket 2.1 22:10:06 10° NNW 22:15:48 80° ENE 22:17:25 49° SE
Cosmos 2333 Rocket 2.2 22:13:47 12° SSW 22:19:14 85° WNW 22:25:03 10° NNE
USA 234 3.5 22:17:39 37° SSE 22:20:12 59° SW 22:26:41 10° NW
S3M 3.9 22:18:41 40° SSE 22:20:59 73° E 22:27:13 10° NNE
Cosmos 1633 2.8 22:19:02 10° NNW 22:22:38 66° W 22:22:38 66° W
Timation 1 Rocket 4.3 22:18:05 10° NNW 22:24:04 72° ENE 22:25:37 50° SE
IGS 5A 4.1 22:25:06 42° ENE 22:25:06 42° ENE 22:28:44 10° N
Cosmos 1536 3.4 22:22:38 10° N 22:26:02 47° NE 22:26:02 47° NE
Cosmos 2219 Rocket 2.8 22:27:01 10° SW 22:32:29 54° WNW 22:38:01 10° NNE
deb Chang Zheng 4 4.2 22:31:26 10° NNE 22:34:48 44° ENE 22:34:48 44° ENE
CARTOSAT-1 3.7 22:36:40 62° NE 22:36:40 62° NE 22:40:42 10° N
SPOT 5 3.9 22:37:06 31° SW 22:38:27 37° W 22:42:42 10° NNW
SeaSat 1 2.4 22:38:34 65° SSW 22:39:10 74° WSW 22:44:07 10° NNW
SL-19 R/B 4.2 22:38:48 10° NNE 22:44:46 68° ESE 22:45:23 63° SE
Meteor 1-5 Rocket 4.2 22:40:29 10° N 22:46:13 72° E 22:46:56 64° SE
Gbstr 26 Del rocket 4.4 22:38:44 10° SW 22:46:33 85° SE 22:54:45 10° ENE
H-2A R/B 2.3 22:47:19 50° SW 22:48:04 55° W 22:52:55 10° NNW
NOSS 0 Rocket 4.3 22:44:09 10° SW 22:50:08 61° WNW 22:56:15 10° NNE
Cosmos 2298 Rocket 3.9 22:44:50 10° NNW 22:50:12 87° WSW 22:50:34 78° S
Cosmos 1745 Rocket 4.1 22:45:53 10° NNW 22:52:13 72° W 22:53:57 49° SSW
Cosmos 1674 Rocket 4.1 22:52:47 51° W 22:53:02 51° W 22:57:16 10° N
Okean 1 Rocket 3.2 22:49:55 10° N 22:54:01 71° NW 22:54:01 71° NW
Landsat 7 4.1 22:55:49 56° WSW 22:56:01 57° W 23:00:44 10° NNW
Cosmos 1937 Rocket 3.3 22:51:36 10° NNW 22:56:52 90° W 22:56:57 88° SSE
ASTEX 1 3.8 23:00:41 53° WSW 23:01:09 55° W 23:06:03 10° NNW
Cosmos 990 Rocket 3.9 22:57:04 10° NNW 23:02:07 83° NNE 23:02:07 83° NNE
H-2A R/B 2.7 23:04:32 52° WNW 23:04:32 52° WNW 23:08:22 10° NNW
Iridium 4 Rocket 3.7 23:00:35 10° NNW 23:04:12 51° WNW 23:04:12 51° WNW
DMSP B5D2-2 4.4 23:03:22 10° N 23:08:35 62° WNW 23:09:30 53° WSW
Cosmos 2285 Rocket 3.8 23:08:10 71° SSE 23:08:46 77° ESE 23:15:09 10° NNE
Cosmos 2369 Rocket 4.0 23:04:49 10° N 23:08:53 20° NE 23:10:16 18° ENE
Terra 2.2 23:11:24 56° W 23:11:24 56° W 23:15:51 10° NNW
Cosmos 2297 3.6 23:08:44 10° NNW 23:14:27 77° WSW 23:14:30 77° WSW
Cosmos 1975 Rocket 3.9 23:20:00 47° N 23:20:00 47° N 23:23:15 10° N
Cosmos 1763 Rocket 3.6 23:21:13 71° NNE 23:21:13 71° NNE 23:25:57 10° NNE
ATLAS 2AS CENTAUR R/B 2.9 23:26:52 64° SSE 23:27:48 70° ESE 23:35:52 10° NE
ALOS 2 4.5 23:29:39 23° NE 23:29:39 23° NE 23:32:12 10° NNE
Cosmos 1125 Rocket 4.0 23:28:55 10° NNW 23:33:35 53° NE 23:33:35 53° NE
Spot 4 4.5 23:36:12 51° NW 23:36:12 51° NW 23:40:04 10° NNW
SL-16 R/B 2.4 23:35:09 66° W 23:35:28 67° WNW 23:41:10 10° NNE
Cosmos 371 Rocket 4.0 23:44:29 52° NNW 23:44:29 52° NNW 23:48:33 10° NNE
Cosmos 2315 Rocket 4.1 23:46:48 63° WSW 23:47:15 65° W 23:53:28 10° N
ATLAS CENTAUR R/B 3.1 23:48:56 31° NNW 23:48:56 31° NNW 23:51:59 10° NNE
ATLAS 3B R/B 2.5 23:43:17 10° NNW 23:50:08 75° NE 23:50:28 73° E
CZ-2C R/B 3.8 23:44:57 10° NNE 23:48:44 35° ENE 23:48:44 35° ENE
Cosmos 2237 Rocket 4.3 23:50:55 10° WSW 23:55:25 23° NW 23:59:55 10° N
